• In Uzbekistan
  • List of Countries
  • For 7 days
  • Water Temperature
  • Satellite Maps
  • Weather Map
  • Weather Widgets
  • user-avatar
    Login

    Hourly Weather Barinas

    Today, 16 June, Sunday

    Time Temperature Precipitation Wind Pressure Humidity
    00:00 +25°C° 0.2 mm 1 mps 744 mmHg 92%
    01:00 +25°C° 0.2 mm 1 mps 743 mmHg 92%
    02:00 +25°C° 0 mm 1 mps 743 mmHg 91%
    03:00 +25°C° 0 mm 1 mps 743 mmHg 89%
    04:00 +24°C° 0 mm 1 mps 743 mmHg 88%
    05:00 +25°C° 0 mm 1 mps 744 mmHg 84%
    06:00 +26°C° 0 mm 1 mps 744 mmHg 81%
    07:00 +27°C° 0 mm 1 mps 745 mmHg 78%
    08:00 +29°C° 0.5 mm 1 mps 745 mmHg 73%
    09:00 +30°C° 0.5 mm 2 mps 745 mmHg 68%
    10:00 +32°C° 0.5 mm 2 mps 745 mmHg 64%
    11:00 +32°C° 0.5 mm 2 mps 744 mmHg 66%
    12:00 +32°C° 0.5 mm 2 mps 744 mmHg 69%
    13:00 +33°C° 0.5 mm 3 mps 743 mmHg 71%
    14:00 +31°C° 1.3 mm 2 mps 743 mmHg 75%
    15:00 +30°C° 1.3 mm 1 mps 742 mmHg 78%
    16:00 +29°C° 1.3 mm 1 mps 742 mmHg 82%
    17:00 +26°C° 0.6 mm 0 mps 743 mmHg 85%
    18:00 +25°C° 0.6 mm 0 mps 743 mmHg 87%
    19:00 +24°C° 0.6 mm 0 mps 744 mmHg 90%
    20:00 +24°C° 0.4 mm 0 mps 744 mmHg 91%
    21:00 +26°C° 0.4 mm 1 mps 744 mmHg 92%
    22:00 +26°C° 0.4 mm 1 mps 745 mmHg 93%
    23:00 +25°C° 0.3 mm 1 mps 745 mmHg 94%

    Tomorrow, 17 June, Monday

    Time Temperature Precipitation Wind Pressure Humidity
    00:00 +25°C° 0.3 mm 1 mps 744 mmHg 95%
    01:00 +25°C° 0.3 mm 1 mps 744 mmHg 96%
    02:00 +25°C° 0.1 mm 1 mps 744 mmHg 95%
    03:00 +25°C° 0.1 mm 1 mps 744 mmHg 95%
    04:00 +25°C° 0.1 mm 1 mps 743 mmHg 95%
    05:00 +25°C° 0 mm 1 mps 744 mmHg 93%
    06:00 +26°C° 0 mm 1 mps 744 mmHg 92%
    07:00 +26°C° 0 mm 1 mps 745 mmHg 90%
    08:00 +27°C° 0.6 mm 1 mps 745 mmHg 86%
    09:00 +28°C° 0.6 mm 1 mps 745 mmHg 81%
    10:00 +30°C° 0.6 mm 1 mps 746 mmHg 76%
    11:00 +30°C° 0.8 mm 2 mps 745 mmHg 76%
    12:00 +30°C° 0.8 mm 2 mps 744 mmHg 76%
    13:00 +30°C° 0.8 mm 2 mps 744 mmHg 76%
    14:00 +30°C° 1.9 mm 2 mps 743 mmHg 80%
    15:00 +29°C° 1.9 mm 1 mps 743 mmHg 85%
    16:00 +28°C° 1.9 mm 1 mps 743 mmHg 89%
    17:00 +27°C° 1.1 mm 1 mps 743 mmHg 92%
    18:00 +26°C° 1.1 mm 1 mps 744 mmHg 94%
    19:00 +25°C° 1.1 mm 1 mps 744 mmHg 97%
    20:00 +25°C° 0.6 mm 1 mps 744 mmHg 96%
    21:00 +25°C° 0.6 mm 1 mps 745 mmHg 96%
    22:00 +25°C° 0.6 mm 1 mps 745 mmHg 96%
    23:00 +25°C° 0.7 mm 1 mps 745 mmHg 96%

    Day after tomorrow, 18 June, Tuesday

    Time Temperature Precipitation Wind Pressure Humidity
    00:00 +23°C° 0.7 mm 0 mps 744 mmHg 96%
    01:00 +23°C° 0.7 mm 0 mps 744 mmHg 96%
    02:00 +23°C° 1.3 mm 0 mps 744 mmHg 96%
    03:00 +25°C° 1.3 mm 1 mps 744 mmHg 96%
    04:00 +25°C° 1.3 mm 1 mps 744 mmHg 97%
    05:00 +25°C° 1 mm 1 mps 744 mmHg 97%
    06:00 +25°C° 1 mm 2 mps 745 mmHg 97%
    07:00 +25°C° 1 mm 2 mps 745 mmHg 97%
    08:00 +25°C° 0.3 mm 2 mps 745 mmHg 96%
    09:00 +25°C° 0.3 mm 1 mps 745 mmHg 95%
    10:00 +25°C° 0.3 mm 1 mps 745 mmHg 94%
    11:00 +27°C° 0.1 mm 1 mps 745 mmHg 88%
    12:00 +28°C° 0.1 mm 1 mps 744 mmHg 82%
    13:00 +30°C° 0.1 mm 1 mps 743 mmHg 76%
    14:00 +30°C° 0.2 mm 1 mps 743 mmHg 77%
    15:00 +30°C° 0.2 mm 1 mps 742 mmHg 79%
    16:00 +29°C° 0.2 mm 1 mps 742 mmHg 81%
    17:00 +28°C° 1 mm 1 mps 742 mmHg 86%
    18:00 +27°C° 1 mm 1 mps 743 mmHg 91%
    19:00 +26°C° 1 mm 1 mps 743 mmHg 96%
    20:00 +26°C° 0.8 mm 2 mps 744 mmHg 96%
    21:00 +25°C° 0.8 mm 2 mps 744 mmHg 96%
    22:00 +25°C° 0.8 mm 2 mps 745 mmHg 96%
    23:00 +25°C° 0.3 mm 2 mps 744 mmHg 95%

    19 June, Wednesday

    Time Temperature Precipitation Wind Pressure Humidity
    00:00 +25°C° 0.3 mm 1 mps 744 mmHg 95%
    01:00 +25°C° 0.3 mm 1 mps 744 mmHg 95%
    02:00 +24°C° 0 mm 1 mps 744 mmHg 94%
    03:00 +24°C° 0 mm 1 mps 744 mmHg 93%
    04:00 +24°C° 0 mm 1 mps 744 mmHg 93%
    05:00 +25°C° 0.1 mm 1 mps 744 mmHg 92%
    06:00 +25°C° 0.1 mm 1 mps 744 mmHg 90%
    07:00 +26°C° 0.1 mm 1 mps 745 mmHg 89%
    08:00 +27°C° 1 mm 2 mps 745 mmHg 87%
    09:00 +28°C° 1 mm 2 mps 745 mmHg 84%
    10:00 +29°C° 1 mm 3 mps 745 mmHg 82%
    11:00 +29°C° 1.6 mm 3 mps 745 mmHg 83%
    12:00 +29°C° 1.6 mm 3 mps 744 mmHg 84%
    13:00 +29°C° 1.6 mm 3 mps 743 mmHg 85%
    14:00 +28°C° 0.9 mm 2 mps 743 mmHg 88%
    15:00 +28°C° 0.9 mm 1 mps 742 mmHg 91%
    16:00 +27°C° 0.9 mm 1 mps 742 mmHg 93%
    17:00 +26°C° 0 mm 1 mps 742 mmHg 94%
    18:00 +26°C° 0 mm 1 mps 743 mmHg 94%
    19:00 +26°C° 0 mm 1 mps 743 mmHg 95%
    20:00 +25°C° 0.5 mm 1 mps 744 mmHg 95%
    21:00 +25°C° 0.5 mm 2 mps 744 mmHg 95%
    22:00 +25°C° 0.5 mm 2 mps 745 mmHg 95%
    23:00 +25°C° 0.4 mm 2 mps 744 mmHg 95%

    20 June, Thursday

    Time Temperature Precipitation Wind Pressure Humidity
    00:00 +25°C° 0.4 mm 2 mps 744 mmHg 95%
    01:00 +24°C° 0.4 mm 1 mps 744 mmHg 94%
    02:00 +24°C° 1.2 mm 1 mps 744 mmHg 95%
    03:00 +24°C° 1.2 mm 1 mps 744 mmHg 95%
    04:00 +24°C° 1.2 mm 1 mps 744 mmHg 96%
    05:00 +24°C° 1.8 mm 1 mps 744 mmHg 96%
    06:00 +24°C° 1.8 mm 1 mps 745 mmHg 97%
    07:00 +24°C° 1.8 mm 2 mps 745 mmHg 97%
    08:00 +25°C° 2.8 mm 2 mps 745 mmHg 97%
    09:00 +25°C° 2.8 mm 2 mps 746 mmHg 98%
    10:00 +25°C° 2.8 mm 2 mps 746 mmHg 98%
    11:00 +25°C° 2.4 mm 1 mps 746 mmHg 96%
    12:00 +25°C° 2.4 mm 1 mps 745 mmHg 95%
    13:00 +26°C° 2.4 mm 1 mps 745 mmHg 94%
    14:00 +26°C° 0 mm 1 mps 744 mmHg 92%
    15:00 +27°C° 0 mm 1 mps 744 mmHg 91%
    16:00 +27°C° 0 mm 2 mps 743 mmHg 89%
    17:00 +27°C° 0 mm 1 mps 744 mmHg 91%
    18:00 +26°C° 0 mm 1 mps 744 mmHg 93%
    19:00 +25°C° 0 mm 1 mps 744 mmHg 94%
    20:00 +25°C° 0 mm 1 mps 745 mmHg 94%
    21:00 +25°C° 0 mm 1 mps 745 mmHg 94%
    22:00 +24°C° 0 mm 2 mps 746 mmHg 94%
    23:00 +24°C° 0 mm 2 mps 746 mmHg 93%

    21 June, Friday

    Time Temperature Precipitation Wind Pressure Humidity
    00:00 +24°C° 0 mm 2 mps 745 mmHg 91%
    01:00 +24°C° 0 mm 2 mps 745 mmHg 90%
    02:00 +24°C° 0 mm 2 mps 745 mmHg 87%
    03:00 +24°C° 0 mm 2 mps 745 mmHg 85%
    04:00 +24°C° 0 mm 2 mps 745 mmHg 83%
    05:00 +24°C° 0.1 mm 2 mps 745 mmHg 84%
    06:00 +25°C° 0.1 mm 2 mps 746 mmHg 86%
    07:00 +25°C° 0.1 mm 3 mps 746 mmHg 87%
    08:00 +26°C° 0 mm 3 mps 747 mmHg 86%
    09:00 +26°C° 0 mm 3 mps 747 mmHg 85%
    10:00 +27°C° 0 mm 3 mps 747 mmHg 84%
    11:00 +27°C° 0.1 mm 3 mps 747 mmHg 83%
    12:00 +27°C° 0.1 mm 3 mps 746 mmHg 82%
    13:00 +27°C° 0.1 mm 3 mps 745 mmHg 81%
    14:00 +28°C° 0 mm 3 mps 745 mmHg 79%
    15:00 +28°C° 0 mm 2 mps 744 mmHg 77%
    16:00 +29°C° 0 mm 2 mps 744 mmHg 75%
    17:00 +28°C° 0 mm 2 mps 744 mmHg 78%
    18:00 +27°C° 0 mm 2 mps 744 mmHg 80%
    19:00 +26°C° 0 mm 2 mps 745 mmHg 82%
    20:00 +26°C° 0 mm 2 mps 745 mmHg 82%
    21:00 +25°C° 0 mm 1 mps 746 mmHg 81%
    22:00 +25°C° 0 mm 1 mps 746 mmHg 80%
    23:00 +25°C° 0 mm 1 mps 746 mmHg 79%
    Show more